sat.trackr.live / text

‹ back to catalog

CHUTIAN-2 B

NORAD 66410 · 2025-256B

PAYLOAD ACTIVE UNKNOWN

§ Identity

Operator
Country
PRC
Launch date
2025-11-09
Launch site
JSC
Launch vehicle
Mass (kg)
RCS (m²)

External: N2YO · Heavens-Above · Gunter

§ Orbital elements

Epoch: 2026-09-20T21:59:54.427488Z

Period
99.29 min
Inclination
98.2447°
Eccentricity
0.0014685
Mean motion
14.50270158 rev/d
Perigee alt
714.3 km
Apogee alt
735.2 km
Semi-major
7,102.9 km
B*
7.4060e-5
RAAN
328.2583°
Arg perigee
46.5280°
Mean anomaly
313.7133°
Rev number
4,577

§ Raw data

CHUTIAN-2 B1 66410U 25256B   26263.91660217  .00000245  00000+0  74060-4 0  99992 66410  98.2447 328.2583 0014685  46.5280 313.7133 14.50270158 45770

JSON: /api/v1/satellites/66410 · /tle

For live sub-satellite position, see the globe view (requires WebGL).

§ Visibility from observer

Set your observer location to see the next 7 days of passes ≥ 10°. The values pass through the URL so the page stays shareable.

No JS? Fill the form by hand. The geolocation button needs JavaScript.